Weather History for Sanford, FL

Change the Weather History Date:

Sunday, October 6, 2013

  Actual Average Record
Temperature  
Mean Temperature 81 °F -  
Max Temperature 91 °F 86 °F 93 °F (1971)
Min Temperature 72 °F 66 °F 55 °F (1987)
Cooling Degree Days 16    
Growing Degree Days 31 (Base 50)    
Moisture  
Dew Point 72 °F    
Average Humidity 86    
Maximum Humidity 100    
Minimum Humidity 50    
Precipitation  
Precipitation 0.55 in - - ()
Sea Level Pressure  
Sea Level Pressure 29.94 in    
Wind  
Wind Speed 3 mph (SE)    
Max Wind Speed 15 mph    
Max Gust Speed -    
Visibility 8 miles    
Events Rain , Thunderstorm    
Averages and records for this station are not official NWS values.
T = Trace of Precipitation, MM = Missing Value Source: NWS Daily Summary

Daily Weather History Graph

Daily Weather History Graph

Search for Another Location

Airport:

Trip Planner

Search our weather history database for the weather conditions in past years. The results will help you decide how hot, cold, wet, or windy it might be!

Date:

Astronomy

Oct. 06, 2013 Rise Set
Actual Time 7:20 AM EDT 7:04 PM EDT
Civil Twilight 6:57 AM EDT 7:28 PM EDT
Nautical Twilight 6:29 AM EDT 7:55 PM EDT
Astronomical Twilight 6:02 AM EDT 8:23 PM EDT
Moon 8:53 AM EDT (10/6) 8:15 PM EDT (10/6)
Length of Visible Light 12h 31m
Length of Day
11h 43m
Waxing Crescent, 3% of the Moon is Illuminated
Oct 6
Waxing Crescent
Oct 11
First Quarter
Oct 18
Full
Oct 26
Last Quarter
Nov 3
New

Hourly Weather History & Observations

Time (EDT) Temp. Heat Index Dew Point Humidity Pressure Visibility Wind Dir Wind Speed Gust Speed Precip Events Conditions
12:53 AM 75.0 °F - 73.0 °F 94% 29.99 in 10.0 mi Calm Calm - N/A   Clear
1:53 AM 73.0 °F - 72.0 °F 96% 29.98 in 10.0 mi Calm Calm - N/A   Clear
2:53 AM 72.0 °F - 71.1 °F 97% 29.97 in 10.0 mi Calm Calm - N/A   Scattered Clouds
3:04 AM 73.4 °F - 71.6 °F 94% 29.97 in 10.0 mi Calm Calm - N/A   Mostly Cloudy
3:26 AM 73.4 °F - 71.6 °F 94% 29.96 in 10.0 mi Calm Calm - N/A   Scattered Clouds
3:53 AM 73.9 °F - 73.0 °F 97% 29.96 in 10.0 mi Calm Calm - N/A   Partly Cloudy
4:53 AM 73.0 °F - 73.0 °F 100% 29.94 in 10.0 mi Calm Calm - N/A   Clear
5:53 AM 72.0 °F - 72.0 °F 100% 29.95 in 10.0 mi Calm Calm - N/A   Clear
6:53 AM 72.0 °F - 72.0 °F 100% 29.96 in 5.0 mi Calm Calm - N/A   Clear
7:53 AM 73.0 °F - 72.0 °F 96% 29.97 in 10.0 mi NE 3.5 mph - N/A   Clear
8:53 AM 77.0 °F - 73.9 °F 90% 29.97 in 10.0 mi Calm Calm - N/A   Clear
9:53 AM 81.0 °F 85.8 °F 73.0 °F 77% 29.98 in 10.0 mi Calm Calm - N/A   Clear
10:53 AM 84.0 °F 90.2 °F 73.0 °F 69% 29.99 in 10.0 mi SSE 6.9 mph - N/A   Clear
11:53 AM 84.9 °F 89.4 °F 70.0 °F 61% 29.98 in 10.0 mi South 8.1 mph - N/A   Mostly Cloudy
12:53 PM 86.0 °F 90.1 °F 69.1 °F 57% 29.96 in 10.0 mi Calm Calm - N/A   Partly Cloudy
1:53 PM 89.1 °F 93.7 °F 69.1 °F 52% 29.93 in 10.0 mi SE 8.1 mph - N/A   Clear
2:53 PM 90.0 °F 94.5 °F 69.1 °F 50% 29.90 in 10.0 mi SE 5.8 mph - N/A   Partly Cloudy
3:53 PM 80.1 °F 85.1 °F 75.0 °F 85% 29.90 in 6.0 mi SE 12.7 mph - 0.02 in Rain Light Rain
4:12 PM 80.6 °F 84.6 °F 71.6 °F 74% 29.90 in 6.0 mi ESE 10.4 mph - 0.00 in   Haze
4:53 PM 84.9 °F 90.1 °F 71.1 °F 63% 29.88 in 10.0 mi ENE 5.8 mph - 0.00 in   Clear
5:53 PM 82.0 °F 87.9 °F 73.9 °F 76% 29.89 in 10.0 mi ENE 8.1 mph - N/A   Partly Cloudy
6:11 PM 80.6 °F 86.2 °F 75.2 °F 84% 29.89 in 10.0 mi ENE 6.9 mph - N/A Thunderstorm Thunderstorm
6:40 PM 75.2 °F - 73.4 °F 94% 29.90 in 6.0 mi SSW 11.5 mph - 0.00 in Rain , Thunderstorm Light Thunderstorms and Rain
6:49 PM 75.2 °F - 73.4 °F 94% 29.91 in 1.0 mi South 13.8 mph - 0.09 in Rain , Thunderstorm Heavy Thunderstorms and Rain
6:53 PM 75.0 °F - 72.0 °F 90% 29.92 in 1.0 mi South 15.0 mph - 0.17 in Rain , Thunderstorm Heavy Thunderstorms and Rain
6:55 PM 75.2 °F - 73.4 °F 94% 29.92 in 0.8 mi South 12.7 mph - 0.07 in Rain , Thunderstorm Heavy Thunderstorms and Rain
6:58 PM 75.2 °F - 73.4 °F 94% 29.93 in 1.0 mi SSE 11.5 mph - 0.10 in Rain , Thunderstorm Heavy Thunderstorms and Rain
7:12 PM 73.4 °F - 71.6 °F 94% 29.93 in 1.5 mi ESE 10.4 mph - 0.30 in Rain , Thunderstorm Heavy Thunderstorms and Rain
7:32 PM 73.4 °F - 71.6 °F 94% 29.92 in 7.0 mi East 10.4 mph - 0.34 in   Overcast
7:53 PM 73.9 °F - 72.0 °F 93% 29.91 in 7.0 mi ENE 4.6 mph - 0.35 in   Overcast
8:53 PM 75.9 °F - 73.9 °F 94% 29.91 in 10.0 mi ESE 3.5 mph - 0.01 in   Scattered Clouds
9:53 PM 73.9 °F - 73.0 °F 97% 29.92 in 10.0 mi ESE 3.5 mph - N/A   Partly Cloudy
10:53 PM 73.9 °F - 73.9 °F 100% 29.91 in 10.0 mi Calm Calm - N/A   Partly Cloudy
11:53 PM 75.0 °F - 73.9 °F 96% 29.90 in 10.0 mi Calm Calm - N/A   Clear